P/2005 RV25 (LONEOS-Christensen)

Epoch 2006 Nov. 1.0 TT = JDT 2454040.5  

T 2006 Nov. 7.40993 TT                                  Nakano

q   3.6078198            (2000.0)            P               Q

n   0.10948086     Peri.  191.70829     +0.19975215     -0.96703670

a   4.3275681      Node   246.93123     +0.91227876     +0.24235881

e   0.1663171      Incl.    9.88359     +0.35755634     -0.07811673

P   9.00 (+/- 0.12 day)

From 103 observations 2005 Sept. 11-2006 Jan. 28, mean residual 0".74.

Residuals in seconds of arc 

2005/                     051022 703  0.4-  1.0+    051028 118  0.4-  1.0-  

050911 699  1.4+  0.3+    051022 703  0.4-  0.1+    051028 A32  0.2-  0.6-  

050911 699  0.8+  0.4+    051022 703  0.2-  0.3-    051028 A32  0.1-  1.0-  

050911 699  0.8+  1.3-    051022 703  0.7-  1.1+    051030 704  0.2-  1.1+  

050912 704  0.4+  1.1+    051022 413  0.1-  0.3+    051030 704  0.5+  0.5+  

050912 704  0.0   0.7-    051022 J95  0.3-  0.3-    051030 704  1.0-  0.2-  

050912 704  0.5-  1.3+    051022 J95  0.5+  0.0     051030 704  1.0-  0.1+  

050912 704  0.2-  0.9+    051022 J95  1.1+  0.8-    051102 704  1.0+  0.6-  

050912 704  1.4-  1.1-    051023 J77  0.1-  0.4+    051102 704  0.7-  0.2+  

050923 703  0.3-  0.2-    051023 J77  1.0-  0.2+    051102 704  1.4-  0.3+  

050923 703  0.7-  0.0     051023 J77  1.5-  0.3+    051102 704  0.2+  1.9+  

050923 703  1.7-  0.4-    051023 J77  0.8+  1.1+    051102 704  0.5-  0.5-  

050923 703  1.7-  1.1-    051023 J77  1.4+  0.2+    051107 J76  1.0+  1.0-  

051001 703  0.6-  0.4-    051023 651  0.4+  0.0     051107 213  0.1+  0.0   

051001 703 (2.5+  4.0-)   051023 673  0.4+  0.4+    051107 213  0.1-  0.0   

051001 703  0.4+  0.0     051023 651  1.1+  0.8+    051107 213  0.2+  0.0   

051008 704  0.6+  0.7+    051023 673  0.5+  0.6+    051108 104  0.0   1.0-  

051008 704  1.3+  0.2+    051023 734  0.6+  0.3+    051108 104  0.2-  0.3-  

051008 704  0.6+  0.0     051023 651  0.5+  0.4+    051108 104 (2.5-  0.4-) 

051008 704  1.2+  0.9-    051023 673  0.4+  0.5+    051118 147  0.9+  0.1+  

051008 704  0.0   0.0     051023 673  0.2+  0.7+    051118 147 (1.8+  3.0-) 

051010 699  1.0+  0.3-    051023 734  0.4+  0.2+    051119 204  0.8-  0.7-  

051010 699  0.2+  0.1+    051023 349  1.1+  0.8-    051119 204  0.8+  0.2-  

051010 699  1.1+  0.2+    051023 349  1.0+  0.4-    051121 A32  1.9-  0.7-  

051010 699  0.3-  0.5-    051024 372  0.7+  1.0+    051203 349  0.2-  0.9-  

051014 699  0.1+  0.5+    051026 699  0.5-  2.0-    051203 349  0.5-  0.2-  

051014 699 (2.2+  0.6+)   051026 699  0.4+  0.6-    051203 213  0.6+  0.4-  

051014 699  1.3-  0.6+    051026 699  0.3+  0.5-    051203 213  0.6+  0.3-  

051014 699  0.4-  1.5-    051026 699  0.4-  0.9-    051203 213  0.6+  0.2-  

051022 703  0.9-  0.0     051026 215  0.2-  1.2+    051206 D88  0.7+  1.0+  

051022 703  0.6-  0.5+    051027 G96  0.1-  1.3+    051206 D88 (2.6+  0.7+) 

051022 703  0.1-  0.2-    051027 G96  0.1-  1.2+    2006/                   

051022 703  0.4-  0.1-    051027 G96  0.0   1.2+    060123 215 (2.2+  2.9+) 

051022 703  0.1+  2.0-    051027 G96  0.3-  1.3+    060128 G96  0.0   1.0+  

051022 703  0.1-  1.0-    051027 A32  0.3-  0.2-    060128 G96  0.9+  0.7+  

051022 703  0.3-  0.8-    051028 A32  1.2-  0.7+    060128 G96  0.8-  0.4-  

051022 703  0.0   1.2-    051028 118  0.1-  0.8+    060128 G96  0.5-  0.5-  



NAKANO

         **** Don't distribute anyone except personal use only ****

                (C) Copyright 2006 OAA/ComputingSection

write mail from CFAD0::NAKANO on 2006-02-06 06:49:21(JST).

 

    P/2005 RV25 (LONEOS-Christensen)

Epoch 2006 Nov. 1.0 TT = JDT 2454040.5  

T 2006 Nov. 7.35276 TT                                  Nakano

q   3.6075113            (2000.0)            P               Q

n   0.10947346     Peri.  191.70651     +0.19975047     -0.96703783

a   4.3277631      Node   246.93307     +0.91227661     +0.24235616

e   0.1664259      Incl.    9.88315     +0.35756277     -0.07811105

P   9.00 (+/- 0.18 day)

From 96 observations 2005 Sept. 11-Dec. 6, mean residual 0".71.



NAKANO

         **** Don't distribute anyone except personal use only ****

                (C) Copyright 2006 OAA/ComputingSection

write mail from CFAD0::NAKANO on 2006-01-01 05:09:23(JST).

 



    P/2005 RV25 (LONEOS-Christensen)

Epoch 2006 Nov. 1.0 TT = JDT 2454040.5  

T 2006 Nov. 7.36835 TT                                  Nakano

q   3.6073695            (2000.0)            P               Q

n   0.10947173     Peri.  191.71215     +0.19965589     -0.96705745

a   4.3278088      Node   246.93303     +0.91230031     +0.24226674

e   0.1664675      Incl.    9.88312     +0.35755513     -0.07814546

P   9.00 (+/- 0.20 day)

From 95 observations 2005 Sept. 11-Dec. 3, mean residual 0".74.



NAKANO

         **** Don't distribute anyone except personal use only ****

                (C) Copyright 2005 OAA/ComputingSection

write mail from CFAD0::NAKANO on 2005-12-08 01:42:10(JST).

 

    P/2005 RV25 (LONEOS-Christensen)

T 2006 Nov. 10.36677 TT                                 Nakano

q   3.6059084            (2000.0)            P               Q

n   0.10946109     Peri.  192.18729     +0.19217119     -0.96856190

a   4.3280891      Node   246.90161     +0.91418929     +0.23521685

e   0.1668590      Incl.    9.88959     +0.35683075     -0.08099929

P   9.00 (+/- 1.28 day)

From 40 observations 2005 Sept. 11-Oct. 23.



NAKANO

         **** Don't distribute anyone except personal use only ****

                (C) Copyright 2005 OAA/ComputingSection

write mail from CFAD0::NAKANO on 2005-11-03 23:39:18(JST).

 



◎P/2005 RV25の軌道と予報位置です



  上尾の門田健一氏から10月23日の観測が報告されました.氏の CCD全光度は,

18.1等でした.



    P/2005 RV25 (LONEOS-Christensen)

T 2006 Nov. 10.36677 TT                                 Nakano

q   3.6059084            (2000.0)            P               Q

n   0.10946109     Peri.  192.18729     +0.19217119     -0.96856190

a   4.3280891      Node   246.90161     +0.91418929     +0.23521685

e   0.1668590      Incl.    9.88959     +0.35683075     -0.08099929

P   9.00 (+/- 1.28 day)

From 40 observations 2005 Sept. 11-Oct. 23.

 

Date/        TT  R.A.(2000) Decl.     Delta   r     Daily motion  Mag.  Moon Age

              h    h  m       。  ,                      ,  / PA 。  m1      。

2005 Oct. 25 14  00 58.50  +16 15.2   2.886  3.853     9.5 / 235  18.2  107  .45

          26 14  00 57.96  +16 09.7   2.888  3.852     9.4 / 235  18.2  119  .36

          27 14  00 57.43  +16 04.3   2.891  3.851     9.3 / 234  18.2  131  .27

          28 14  00 56.91  +15 58.8   2.894  3.850     9.2 / 234  18.2  143  .19

          29 14  00 56.40  +15 53.3   2.897  3.849     9.1 / 233  18.2  154  .12

          30 14  00 55.89  +15 47.9   2.900  3.847     9.0 / 233  18.2  165  .06

          31 14  00 55.40  +15 42.4   2.904  3.846     8.9 / 232  18.2  171  .02

     Nov.  1 14  00 54.92  +15 36.9   2.908  3.845     8.7 / 231  18.2  164  .00

           2 14  00 54.44  +15 31.5   2.913  3.844     8.6 / 231  18.2  151  .00

           3 14  00 53.98  +15 26.1   2.917  3.843     8.5 / 230  18.2  138  .03

           4 14  00 53.53  +15 20.6   2.922  3.842     8.3 / 230  18.2  125  .07

           5 14  00 53.10  +15 15.3   2.927  3.840     8.1 / 229  18.2  111  .14

           6 14  00 52.67  +15 09.9   2.933  3.839     8.0 / 228  18.2   97  .23

           7 14  00 52.26  +15 04.6   2.938  3.838     7.8 / 227  18.2   83  .33

           8 14  00 51.86  +14 59.3   2.944  3.837     7.6 / 227  18.2   69  .44

           9 14  00 51.48  +14 54.1   2.951  3.836     7.5 / 226  18.2   55  .56

          10 14  00 51.11  +14 48.9   2.957  3.835     7.3 / 225  18.2   41  .67

          11 14  00 50.76  +14 43.7   2.964  3.834     7.1 / 224  18.2   27  .77

          12 14  00 50.42  +14 38.6   2.971  3.832     6.9 / 223  18.2   14  .86

          13 14  00 50.09  +14 33.6   2.978  3.831     6.7 / 222  18.2    8  .93

          14 14  00 49.78  +14 28.6   2.985  3.830     6.5 / 221  18.2   18  .97

          15 14  00 49.48  +14 23.7   2.993  3.829     6.3 / 220  18.2   31 1.00

          16 14  00 49.20  +14 18.9   3.001  3.828     6.1 / 219  18.2   44 1.00

          17 14  00 48.94  +14 14.1   3.009  3.827     5.9 / 218  18.2   57  .97

          18 14  00 48.69  +14 09.4   3.018  3.826     5.7 / 216  18.2   70  .93

          19 14  00 48.46  +14 04.8   3.026  3.825     5.5 / 215  18.2   82  .87

          20 14  00 48.24  +14 00.2   3.035  3.823     5.3 / 213  18.2   94  .80

          21 14  00 48.04  +13 55.8   3.044  3.822     5.1 / 211  18.2  106  .71

          22 14  00 47.86  +13 51.4   3.053  3.821     4.9 / 209  18.2  118  .63

          23 14  00 47.69  +13 47.1   3.063  3.820     4.7 / 207  18.3  130  .53

          24 14  00 47.54  +13 42.9   3.072  3.819     4.6 / 205  18.3  142  .44

          25 14  00 47.41  +13 38.8   3.082  3.818     4.4 / 203  18.3  153  .35

          26 14  00 47.29  +13 34.7   3.092  3.817     4.2 / 200  18.3  165  .26

          27 14  00 47.20  +13 30.8   3.102  3.816     4.0 / 197  18.3  173  .18

          28 14  00 47.12  +13 27.0   3.113  3.815     3.9 / 194  18.3  166  .11

          29 14  00 47.05  +13 23.2   3.123  3.814     3.7 / 191  18.3  154  .05

          30 14  00 47.00  +13 19.6   3.134  3.812     3.6 / 187  18.3  141  .01

     Dec.  1 14  00 46.98  +13 16.1   3.145  3.811     3.4 / 183  18.3  127  .00

NAKANO

         **** Don't distribute anyone except personal use only ****

                (C) Copyright 2005 OAA/ComputingSection

write mail from CFAD0::NAKANO on 2005-10-25 06:01:18(JST).





戻ります。